Regional Weather Roundup
Issued by NWS

Home | Current Version | Previous Version | Graphics & Text | Print | Product List | Glossary Off
Versions: 1 2 3 4 5 6 7 8 9 10 11 12 13 14 15 16 17 18 19 20 21 22 23 24 25 26 27 28 29 30 31 32 33 34 35 36 37 38 39 40 41 42 43 44 45 46 47 48 49 50

000
ASUS43 KLSX 300510
RWRMO

WEATHER SUMMARY FOR MISSOURI
NATIONAL WEATHER SERVICE SPRINGFIELD MO
1200 AM CDT SAT APR 30 2016

NOTE: "FAIR" INDICATES FEW OR NO CLOUDS BELOW 12,000 FEET WITH NO
       SIGNIFICANT WEATHER AND/OR OBSTRUCTIONS TO VISIBILITY.
       CURRENT SKY AND/OR WEATHER CONDITIONS ARE NOT AVAILABLE FOR
       CHILLICOTHE AND FARMINGTON.

MOZ001>031-035>038-043-044-053-054-300600-
...NORTHERN AND WESTERN MISSOURI...

CITY           SKY/WX    TMP DP  RH WIND       PRES   REMARKS
KANSAS CTY INT HVY RAIN  52  50  93 NE18      29.77F FOG
KANSAS C DTWN  LGT RAIN  54  51  90 NE16      29.75F
LEE`S SUMMIT   CLOUDY    55  54  96 E12       29.77F
ST JOSEPH      RAIN      50  48  93 E20G28    29.81F FOG
CHILLICOTHE      N/A     52  48  86 E7        29.88R
KIRKSVILLE     CLOUDY    50  46  86 NE14G21   29.93S

$$
MOZ066>068-077>081-088>096-101>105-300600-
...SOUTHWEST MISSOURI...

CITY           SKY/WX    TMP DP  RH WIND       PRES   REMARKS
SPRINGFIELD    RAIN      60  58  92 E6        29.80F
JOPLIN         CLOUDY    59  58  96 E16G26    29.66F

$$
MOZ032>034-039>042-045>050-055>058-069>072-300600-
...CENTRAL MISSOURI...

CITY           SKY/WX    TMP DP  RH WIND       PRES   REMARKS
COLUMBIA       LGT RAIN  57  55  93 E12       29.87F
JEFFERSON CITY LGT RAIN  57  55  93 SE9       29.88F
ROLLA          TSTM      56  55  97 E12       29.87F FOG
SEDALIA        LGT RAIN  57  55  93 SE22G31   29.81F
WHITEMAN AFB   LGT RAIN  56  56 100 SE15G30   29.78R
WARRENSBURG    LGT RAIN  55  54  94 E13G18    29.76F
OSAGE BEACH    CLOUDY    57  48  72 E8        29.86F

$$
MOZ051-052-059>065-300600-
...EAST CENTRAL MISSOURI...

CITY           SKY/WX    TMP DP  RH WIND       PRES   REMARKS
ST LOUIS INTL  TSTM      61  55  82 E13       29.93F
SPIRIT OF STL  TSTM      57  57 100 E9        29.91F FOG
ST CHARLES     LGT RAIN  59  57  93 E12       29.93F

$$
MOZ072>076-082>087-097>100-106>115-300600-
...SOUTH CENTRAL AND SOUTHEAST MISSOURI...

CITY           SKY/WX    TMP DP  RH WIND       PRES   REMARKS
CAPE GIRARDEAU CLOUDY    61  56  83 E8        29.89F
FARMINGTON     CLOUDY    59  55  87 SE6       29.92S
POPLAR BLUFF   CLOUDY    61  58  90 E3        29.90R
WEST PLAINS    LGT RAIN  60  57  89 SE8       29.87S

$$




USA.gov is the U.S. government's official web portal to all federal, state and local government web resources and services.